Location: Go?cza
(50.3372°N, 19.9313°E)
Time: 03:24:23
(UTC+00:00)

Daily predictions for brighter satellites

Satellite Brightness Start Highest point End
(mag) Time Altitude Azimuth Time Altitude Azimuth Time Altitude Azimuth
Cosmos 1315 Rocket 3.3 00:04:20 27° SSE 00:06:10 51° E 00:09:59 10° NNE
SJ 16-02 3.6 00:03:34 10° SE 00:06:11 16° E 00:08:49 10° ENE
Cosmos 2228 Rocket 4.1 00:05:20 24° WSW 00:07:23 36° WNW 00:11:35 10° N
Meteor 1-21 4.5 00:04:42 26° SSW 00:07:57 61° WNW 00:13:40 10° N
Helios 1A Rocket 3.3 00:07:44 33° SW 00:08:53 43° W 00:12:35 10° NNW
Cosmos 2082 Rocket 2.4 00:07:01 24° SW 00:10:34 70° WNW 00:16:19 10° NNE
SL-16 R/B 3.9 00:07:04 10° SE 00:12:46 39° ENE 00:18:31 10° N
Cosmos 2219 Rocket 4.2 00:08:00 10° NNW 00:12:56 30° NE 00:17:51 10° ESE
Cosmos 1833 Rocket 4.3 00:08:37 10° WSW 00:13:23 28° NW 00:18:11 10° NNE
BREEZE-M DEB (TANK) 4.4 00:13:11 19° WSW 00:15:19 30° SSW 00:23:44 10° SE
CZ-2D R/B 3.1 00:11:55 10° NNE 00:17:06 42° E 00:21:24 14° SSE
Cosmos 1782 Rocket 3.8 00:14:45 10° N 00:19:08 67° ENE 00:22:35 16° SSE
Cosmos 2237 4.2 00:13:54 10° NNW 00:19:40 82° WSW 00:25:24 10° SSE
Cosmos 1908 Rocket 3.6 00:15:29 10° NNW 00:19:54 67° W 00:22:20 25° S
Cosmos 2360 Rocket 3.0 00:16:31 10° NNW 00:22:05 53° NE 00:27:38 10° SE
USA 267 3.6 00:15:46 10° ENE 00:22:14 66° NNW 00:28:42 10° W
Cosmos 968 Rocket 4.5 00:22:13 15° SSE 00:25:50 37° ESE 00:30:33 10° NE
DELTA 2 R/B (1) 4.5 00:26:16 23° SSW 00:27:52 27° S 00:32:28 10° SE
MSX 4.2 00:22:46 10° NNE 00:28:28 59° ESE 00:32:57 16° S
Cosmos 1455 2.1 00:26:32 10° NNW 00:29:55 52° W 00:31:18 30° SSW
Resurs 1-4 Rocket 2.5 00:26:42 10° NNE 00:31:53 56° E 00:36:00 16° S
Cosmos 841 Rocket 3.6 00:27:16 10° NNW 00:32:24 57° WSW 00:36:21 17° S
RESURS DK-1 3.9 00:28:43 10° NNW 00:32:32 37° NE 00:36:19 10° ESE
H-2A R/B 3.3 00:37:16 10° NNE 00:41:18 85° ESE 00:43:50 22° SSW
Cosmos 2278 3.9 00:36:18 10° NW 00:41:51 51° WSW 00:46:48 13° S
Cosmos 1346 Rocket 4.5 00:41:33 10° NW 00:44:12 18° W 00:45:17 16° WSW
COBE Rocket 3.9 00:39:43 10° NNE 00:44:36 84° WNW 00:48:15 19° SSW
Okean 2 4.3 00:49:49 20° SW 00:51:58 33° WNW 00:55:37 10° N
CZ-2C R/B 2.5 00:47:46 11° S 00:52:46 74° WSW 00:57:59 10° NNW
Cosmos 1745 Rocket 4.2 00:48:37 18° SSW 00:53:18 63° WNW 00:59:34 10° N
Meteor 1-4 Rocket 3.2 00:53:08 22° WSW 00:54:21 31° WNW 00:57:03 10° N
Cosmos 2333 Rocket 2.4 00:49:07 10° NNW 00:54:52 79° ENE 01:00:37 10° SSE
Cosmos 2242 Rocket 3.7 00:53:26 15° S 00:57:01 77° E 01:01:32 10° NNE
Cosmos 2098 Rocket 3.9 00:54:08 10° N 00:59:11 72° E 01:05:11 10° SSE
Cosmos 2322 Rocket 2.1 00:54:02 10° NNW 00:59:41 73° WSW 01:05:19 10° SSE
USA 234 4.3 00:56:30 14° SSW 01:00:14 23° SW 01:05:13 10° WNW
Cosmos 1814 Rocket 4.0 00:55:28 10° NNW 01:00:42 86° WSW 01:05:58 10° SSE
Cosmos 1703 Rocket 4.3 00:58:54 18° SW 01:01:46 40° WNW 01:06:00 10° N
Cosmos 1953 3.8 01:00:38 10° NW 01:03:38 21° W 01:05:21 16° WSW
NPP 3.8 01:00:44 10° N 01:06:06 67° WNW 01:10:34 15° SSW
Meteor 2-5 Rocket 4.3 01:00:59 10° S 01:06:46 59° E 01:12:38 10° NNE
SL-27 R/B 2.7 01:08:51 16° S 01:10:52 45° ESE 01:13:35 10° NE
Cosmos 1980 Rocket 4.2 01:12:08 10° W 01:12:22 10° W 01:12:35 10° W
Cosmos 1242 Rocket 2.4 01:13:25 20° SW 01:15:09 47° WNW 01:17:58 10° N
Okean 2 Rocket 3.9 01:11:18 10° N 01:15:37 51° ENE 01:19:54 10° SSE
SL-4 R/B 4.2 01:12:56 10° S 01:15:40 17° SE 01:18:29 10° E
Cosmos 1300 Rocket 4.1 01:12:54 10° NNW 01:16:57 40° W 01:20:25 13° SSW
ADEOS II 2.1 01:13:43 10° NNE 01:19:00 87° ESE 01:24:12 10° SSW
Cosmos 1408 2.4 01:21:25 16° SSW 01:23:32 50° WNW 01:26:29 10° N
IDEFIX/ARIANE 42P 3.1 01:18:52 10° N 01:23:53 47° WNW 01:28:28 12° SW
Lacrosse 5 rocket 2.3 01:23:09 10° WNW 01:26:26 24° SW 01:29:36 10° S
ALOS 2.7 01:22:14 10° NNE 01:26:50 62° ESE 01:31:24 10° S
Cosmos 839 Rocket 4.2 01:20:16 10° NW 01:27:39 72° WSW 01:33:53 10° SSE
Cosmos 2184 Rocket 4.4 01:23:51 10° S 01:29:58 65° E 01:36:12 10° NNE
EXPRESS MD2 3.4 01:27:55 14° SW 01:30:16 51° SSE 01:35:03 10° E
Nadezhda 3 Rocket 4.5 01:31:22 10° N 01:37:45 68° ENE 01:44:02 10° SSE
Envisat 4.2 01:33:02 10° NNE 01:37:51 41° E 01:42:38 10° SSE
Cosmos 405 Rocket 2.9 01:34:19 10° N 01:37:54 69° ENE 01:41:32 10° SSE
CZ-2C R/B 4.2 01:33:59 10° NE 01:38:07 28° E 01:42:07 10° SSE
Cosmos 1378 Rocket 3.7 01:34:00 10° S 01:38:15 72° E 01:42:33 10° NNE
Cosmos 2154 Rocket 4.4 01:35:06 10° S 01:41:11 64° E 01:47:20 10° NNE
ATLAS 2AS CENTAUR R/B 2.7 01:34:52 10° NW 01:41:47 85° SW 01:48:26 10° SE
Okean 1 Rocket 3.6 01:38:05 10° N 01:42:23 61° ENE 01:46:40 10° SSE
CZ-2C R/B 3.6 01:36:43 10° N 01:42:26 59° WNW 01:48:03 10° SSW
SL-16 R/B 3.3 01:39:10 10° NW 01:43:35 24° WSW 01:47:59 10° SSW
SJ 16-02 1.4 01:39:50 10° SSW 01:44:01 64° WNW 01:48:20 10° NNE
Cosmos 2322 4.1 01:39:58 10° NNW 01:45:42 70° ENE 01:51:22 10° SE
ATLAS CENTAUR R/B 3.7 01:44:36 10° SE 01:45:51 12° ESE 01:47:06 10° E
UNK 3.8 01:44:15 10° S 01:48:52 68° WSW 01:53:31 10° NNW
Cosmos 2333 4.4 01:45:28 10° NW 01:51:03 54° WSW 01:56:37 10° S
Cosmos 2082 Rocket 4.2 01:51:38 10° W 01:55:43 20° NW 01:59:48 10° N
SL-16 R/B 2.9 01:50:15 10° S 01:56:16 47° W 02:02:19 10° NNW
CZ-2D R/B 3.1 01:52:04 10° N 01:57:03 36° WNW 02:01:58 10° SW
Cosmos 2181 Rocket 4.4 01:51:11 10° NNW 01:57:15 47° W 02:03:11 10° SSW
Cosmos 2219 Rocket 2.2 01:51:42 10° NW 01:57:19 65° WSW 02:02:53 10° SSE
AQUA 4.3 01:58:57 10° N 02:03:29 46° WNW 02:07:59 10° SW
Meteor 1-28 Rocket 4.4 02:00:39 10° SSW 02:03:34 23° W 02:06:29 10° NW
Cosmos 1703 4.1 02:00:30 10° SW 02:03:51 32° WNW 02:07:16 10° N
USA 267 4.2 01:58:34 10° ENE 02:04:49 50° N 02:11:04 10° WNW
COSMOS 2428 3.0 02:00:03 10° NNW 02:05:46 79° ENE 02:11:28 10° SSE
Cosmos 2360 Rocket 3.0 02:00:55 10° NW 02:05:51 31° WSW 02:10:45 10° SSW
